Location: Unspecified
(0.0000°N, 0.0000°E)
Time: 09:01:05
(UTC+00:00)

Vanguard 2 - Visible Passes

Search period start: 03 April 2020 00:00
Search period end: 13 April 2020 00:00
Orbit: 553 x 2938 km, 32.9° (Epoch: 02 April)

Date Brightness Start Highest point End Pass type
(mag) Time Alt. Az. Time Alt. Az. Time Alt. Az.
03 Apr 9.4 19:51:09 10° NNW 19:53:27 16° N 19:53:27 16° N visible
04 Apr 9.3 20:08:11 10° NNW 20:10:38 21° NNW 20:10:38 21° NNW visible
05 Apr 11.2 04:53:29 10° S 04:58:01 13° SSE 05:03:18 10° SE visible
05 Apr 9.5 20:25:43 10° NW 20:27:50 21° NW 20:27:50 21° NW visible
06 Apr 11.0 05:09:41 10° S 05:16:35 18° SE 05:25:24 10° ESE visible
06 Apr 9.4 18:34:39 10° NNW 18:39:39 19° NNE 18:43:26 10° ENE visible
06 Apr 10.0 20:43:40 10° WNW 20:45:03 17° WNW 20:45:03 17° WNW visible
07 Apr 10.9 05:26:28 10° SSW 05:34:53 25° SE 05:46:21 10° E visible
07 Apr 8.8 18:51:45 10° NNW 18:58:03 30° NNE 19:00:51 19° ENE visible
07 Apr 10.5 21:02:05 10° WNW 21:02:17 11° WNW 21:02:17 11° WNW visible
08 Apr 8.0 19:09:16 10° NW 19:16:16 49° NNE 19:18:05 34° E visible
09 Apr 10.9 03:58:18 10° SSE 04:00:05 11° SE 04:01:58 10° SE visible
09 Apr 7.5 19:27:08 10° NW 19:34:16 85° NNE 19:35:21 58° ESE visible
10 Apr 10.8 04:13:07 10° S 04:18:22 16° SE 04:25:04 10° ESE visible
10 Apr 7.9 19:45:22 10° WNW 19:52:05 54° SW 19:52:36 52° SSW visible
11 Apr 10.6 04:29:37 10° S 04:36:25 24° SE 04:45:58 10° E visible
11 Apr 8.9 20:04:04 10° W 20:09:45 30° SW 20:09:52 30° SW visible
12 Apr 10.5 04:46:33 10° SSW 04:54:18 33° SE 05:05:59 10° E visible
12 Apr 8.4 18:09:38 10° NW 18:19:12 69° NNE 18:24:52 10° ESE visible
12 Apr 9.8 20:23:30 10° W 20:27:07 17° SW 20:27:07 17° SW visible
